Weather History for Roosevelt Roads, PR

Change the Weather History Date:

Wednesday, January 22, 2014

  Actual Average Record
Temperature  
Mean Temperature 78 °F -  
Max Temperature 84 °F 80 °F 84 °F (1998)
Min Temperature 72 °F 69 °F 70 °F (2003)
Cooling Degree Days 13    
Growing Degree Days 28 (Base 50)    
Moisture  
Dew Point 72 °F    
Average Humidity 85    
Maximum Humidity 97    
Minimum Humidity 69    
Precipitation  
Precipitation 0.03 in - - ()
Sea Level Pressure  
Sea Level Pressure 30.05 in    
Wind  
Wind Speed 3 mph (SE)    
Max Wind Speed 13 mph    
Max Gust Speed 18 mph    
Visibility 10 miles    
Events Rain    
Averages and records for this station are not official NWS values.
T = Trace of Precipitation, MM = Missing Value Source: NWS Daily Summary

Daily Weather History Graph

Daily Weather History Graph

Search for Another Location

Airport:

Trip Planner

Search our weather history database for the weather conditions in past years. The results will help you decide how hot, cold, wet, or windy it might be!

Date:

Astronomy

Jan. 22, 2014 Rise Set
Actual Time 6:57 AM AST 6:11 PM AST
Civil Twilight 6:34 AM AST 6:34 PM AST
Nautical Twilight 6:07 AM AST 7:00 PM AST
Astronomical Twilight 5:41 AM AST 7:27 PM AST
Moon 11:38 PM AST (1/22) 10:52 AM AST (1/22)
Length of Visible Light 11h 59m
Length of Day
11h 13m
Waning Gibbous, 66% of the Moon is Illuminated
Jan 22
Waning Gibbous
Jan 24
Last Quarter
Jan 30
New
Feb 6
First Quarter
Feb 14
Full

Hourly Weather History & Observations

Time (AST) Temp. Heat Index Dew Point Humidity Pressure Visibility Wind Dir Wind Speed Gust Speed Precip Events Conditions
12:11 AM 73.4 °F - 71.6 °F 94% 30.03 in 10.0 mi Calm Calm - N/A   Mostly Cloudy
12:25 AM 73.4 °F - 69.8 °F 88% 30.02 in 10.0 mi Calm Calm - N/A   Scattered Clouds
12:53 AM 72.0 °F - 70.0 °F 93% 30.02 in 10.0 mi Calm Calm - N/A   Partly Cloudy
1:53 AM 72.0 °F - 70.0 °F 93% 30.01 in 10.0 mi Calm Calm - N/A   Scattered Clouds
2:53 AM 73.0 °F - 70.0 °F 90% 29.99 in 10.0 mi Calm Calm - N/A   Clear
3:53 AM 72.0 °F - 70.0 °F 93% 29.99 in 10.0 mi Calm Calm - N/A   Scattered Clouds
4:53 AM 73.0 °F - 71.1 °F 93% 30.00 in 10.0 mi Calm Calm - 0.00 in   Scattered Clouds
5:53 AM 72.0 °F - 71.1 °F 97% 30.01 in 10.0 mi Calm Calm - N/A   Clear
6:53 AM 72.0 °F - 71.1 °F 97% 30.03 in 10.0 mi Calm Calm - N/A   Partly Cloudy
7:53 AM 73.9 °F - 72.0 °F 93% 30.05 in 10.0 mi North 3.5 mph - N/A   Mostly Cloudy
8:32 AM 75.2 °F - 71.6 °F 89% 30.07 in 5.0 mi East 5.8 mph 18.4 mph 0.03 in Rain Light Rain
8:39 AM 75.2 °F - 73.4 °F 94% 30.07 in 8.0 mi Calm Calm - 0.03 in Rain Light Rain
8:53 AM 77.0 °F - 73.9 °F 90% 30.07 in 10.0 mi Calm Calm - 0.03 in   Overcast
9:53 AM 81.0 °F 86.2 °F 73.9 °F 79% 30.08 in 10.0 mi SE 11.5 mph - N/A   Partly Cloudy
10:18 AM 80.6 °F 85.4 °F 73.4 °F 79% 30.08 in 10.0 mi ESE 10.4 mph - N/A   Mostly Cloudy
10:53 AM 82.0 °F 87.4 °F 73.0 °F 74% 30.08 in 10.0 mi ESE 12.7 mph - N/A   Mostly Cloudy
11:12 AM 82.4 °F 88.2 °F 73.4 °F 74% 30.07 in 10.0 mi ESE 12.7 mph - N/A   Mostly Cloudy
11:53 AM 82.9 °F 88.8 °F 73.0 °F 72% 30.06 in 10.0 mi East 10.4 mph - N/A   Overcast
12:53 PM 82.9 °F 88.8 °F 73.0 °F 72% 30.04 in 10.0 mi East 9.2 mph - N/A   Mostly Cloudy
1:39 PM 84.2 °F 90.9 °F 73.4 °F 70% 30.02 in 10.0 mi SE 9.2 mph - N/A   Scattered Clouds
1:53 PM 84.0 °F 90.2 °F 73.0 °F 69% 30.01 in 10.0 mi SE 9.2 mph - N/A   Mostly Cloudy
2:09 PM 84.2 °F 90.9 °F 73.4 °F 70% 30.01 in 10.0 mi SSE 8.1 mph - N/A   Mostly Cloudy
2:53 PM 82.9 °F 88.8 °F 73.0 °F 72% 30.00 in 10.0 mi South 10.4 mph - N/A   Overcast
3:04 PM 82.4 °F 88.2 °F 73.4 °F 74% 30.00 in 10.0 mi South 8.1 mph - N/A   Mostly Cloudy
3:53 PM 82.9 °F 88.0 °F 72.0 °F 69% 30.01 in 10.0 mi South 11.5 mph - N/A   Partly Cloudy
4:53 PM 82.0 °F 86.7 °F 72.0 °F 71% 30.02 in 10.0 mi South 8.1 mph - N/A   Clear
5:53 PM 80.1 °F 83.8 °F 72.0 °F 76% 30.03 in 10.0 mi South 8.1 mph - N/A   Clear
6:53 PM 78.1 °F - 72.0 °F 81% 30.05 in 10.0 mi Calm Calm - N/A   Clear
7:53 PM 73.9 °F - 72.0 °F 93% 30.07 in 10.0 mi Calm Calm - N/A   Clear
8:53 PM 73.9 °F - 72.0 °F 93% 30.09 in 10.0 mi Calm Calm - N/A   Clear
9:39 PM 75.2 °F - 71.6 °F 89% 30.10 in 10.0 mi Calm Calm - N/A   Mostly Cloudy
9:53 PM 75.0 °F - 72.0 °F 90% 30.10 in 10.0 mi Calm Calm - N/A   Mostly Cloudy
10:07 PM 73.4 °F - 71.6 °F 94% 30.10 in 10.0 mi Calm Calm - N/A   Partly Cloudy
10:53 PM 73.9 °F - 72.0 °F 93% 30.11 in 10.0 mi Calm Calm - N/A   Mostly Cloudy
11:18 PM 73.4 °F - 71.6 °F 94% 30.11 in 10.0 mi Calm Calm - N/A   Partly Cloudy
11:53 PM 73.9 °F - 72.0 °F 93% 30.11 in 10.0 mi Calm Calm - N/A   Clear